When you browse on this site, cookies collect data to enhance your experience and personalize the content and advertising you see.
Visit our Privacy Policy to learn more. By continuing to use the site, you agree to this use of cookies and data.
  • en Suisse
  • Liste des pays
  • À 7 jours
  • Température de l'eau
  • Carte météo
  • Widgets météo
  • user-avatar
    Se connecter

    Météo par heure à Gand

    Ce jour, 29 Février, Samedi

    Heure Température Précipitation Vent Pression Humidité
    00:00 +9°C° 0 mm 8 m/s 749 mmHg 86%
    01:00 +9°C° 0 mm 8 m/s 748 mmHg 84%
    02:00 +9°C° 0 mm 8 m/s 748 mmHg 82%
    03:00 +7°C° 0 mm 8 m/s 747 mmHg 80%
    04:00 +7°C° 0 mm 8 m/s 746 mmHg 81%
    05:00 +6°C° 0 mm 8 m/s 745 mmHg 82%
    06:00 +6°C° 0 mm 8 m/s 744 mmHg 83%
    07:00 +7°C° 0 mm 9 m/s 742 mmHg 79%
    08:00 +7°C° 0 mm 10 m/s 741 mmHg 76%
    09:00 +8°C° 0 mm 11 m/s 740 mmHg 73%
    10:00 +7°C° 1.3 mm 10 m/s 740 mmHg 76%
    11:00 +6°C° 1.3 mm 10 m/s 740 mmHg 79%
    12:00 +3°C° 1.3 mm 9 m/s 740 mmHg 82%
    13:00 +5°C° 0.1 mm 10 m/s 741 mmHg 72%
    14:00 +6°C° 0.1 mm 10 m/s 742 mmHg 61%
    15:00 +7°C° 0.1 mm 10 m/s 743 mmHg 51%
    16:00 +6°C° 0 mm 9 m/s 743 mmHg 56%
    17:00 +5°C° 0 mm 8 m/s 743 mmHg 61%
    18:00 +4°C° 0 mm 7 m/s 744 mmHg 66%
    19:00 +4°C° 0.3 mm 8 m/s 744 mmHg 71%
    20:00 +2°C° 0.3 mm 8 m/s 744 mmHg 75%
    21:00 +2°C° 0.3 mm 8 m/s 744 mmHg 79%
    22:00 +2°C° 0.2 mm 8 m/s 744 mmHg 81%
    23:00 +2°C° 0.2 mm 9 m/s 744 mmHg 82%

    Demain, 1 Mars, Dimanche

    Heure Température Précipitation Vent Pression Humidité
    00:00 +2°C° 0.2 mm 9 m/s 744 mmHg 84%
    01:00 +1°C° 0.1 mm 9 m/s 743 mmHg 84%
    02:00 +1°C° 0.1 mm 9 m/s 743 mmHg 83%
    03:00 +1°C° 0.1 mm 10 m/s 743 mmHg 83%
    04:00 +1°C° 0.5 mm 9 m/s 744 mmHg 84%
    05:00 +1°C° 0.5 mm 9 m/s 744 mmHg 85%
    06:00 +2°C° 0.5 mm 9 m/s 744 mmHg 86%
    07:00 +2°C° 0.8 mm 9 m/s 744 mmHg 86%
    08:00 +1°C° 0.8 mm 9 m/s 744 mmHg 86%
    09:00 +1°C° 0.8 mm 9 m/s 744 mmHg 85%
    10:00 +2°C° 0.2 mm 9 m/s 744 mmHg 80%
    11:00 +3°C° 0.2 mm 9 m/s 744 mmHg 76%
    12:00 +5°C° 0.2 mm 9 m/s 744 mmHg 71%
    13:00 +6°C° 0.1 mm 8 m/s 743 mmHg 69%
    14:00 +6°C° 0.1 mm 7 m/s 743 mmHg 66%
    15:00 +8°C° 0.1 mm 7 m/s 742 mmHg 64%
    16:00 +7°C° 0.4 mm 5 m/s 742 mmHg 72%
    17:00 +6°C° 0.4 mm 4 m/s 741 mmHg 80%
    18:00 +6°C° 0.4 mm 2 m/s 740 mmHg 88%
    19:00 +5°C° 0.4 mm 3 m/s 740 mmHg 87%
    20:00 +5°C° 0.4 mm 3 m/s 741 mmHg 86%
    21:00 +4°C° 0.4 mm 4 m/s 741 mmHg 85%
    22:00 +4°C° 0 mm 4 m/s 741 mmHg 85%
    23:00 +3°C° 0 mm 4 m/s 741 mmHg 84%

    Après-demain, 2 Mars, Lundi

    Heure Température Précipitation Vent Pression Humidité
    00:00 +3°C° 0 mm 4 m/s 741 mmHg 84%
    01:00 +2°C° 0 mm 5 m/s 741 mmHg 85%
    02:00 +2°C° 0 mm 5 m/s 740 mmHg 85%
    03:00 +2°C° 0 mm 6 m/s 739 mmHg 86%
    04:00 +2°C° 0.4 mm 6 m/s 738 mmHg 87%
    05:00 +3°C° 0.4 mm 7 m/s 737 mmHg 88%
    06:00 +3°C° 0.4 mm 7 m/s 736 mmHg 89%
    07:00 +4°C° 0.1 mm 7 m/s 736 mmHg 85%
    08:00 +5°C° 0.1 mm 7 m/s 736 mmHg 81%
    09:00 +5°C° 0.1 mm 7 m/s 735 mmHg 77%
    10:00 +5°C° 0.2 mm 7 m/s 736 mmHg 78%
    11:00 +5°C° 0.2 mm 8 m/s 736 mmHg 80%
    12:00 +5°C° 0.2 mm 8 m/s 737 mmHg 81%
    13:00 +4°C° 0.4 mm 8 m/s 737 mmHg 76%
    14:00 +4°C° 0.4 mm 8 m/s 738 mmHg 72%
    15:00 +4°C° 0.4 mm 8 m/s 739 mmHg 67%
    16:00 +3°C° 0 mm 7 m/s 740 mmHg 69%
    17:00 +3°C° 0 mm 5 m/s 741 mmHg 71%
    18:00 +3°C° 0 mm 4 m/s 742 mmHg 74%
    19:00 +3°C° 0 mm 4 m/s 743 mmHg 75%
    20:00 +1°C° 0 mm 4 m/s 743 mmHg 77%
    21:00 +1°C° 0 mm 4 m/s 744 mmHg 79%
    22:00 +1°C° 0 mm 4 m/s 745 mmHg 80%
    23:00 +1°C° 0 mm 4 m/s 745 mmHg 81%

    3 Mars, Mardi

    Heure Température Précipitation Vent Pression Humidité
    00:00 0°C° 0 mm 4 m/s 745 mmHg 83%
    01:00 0°C° 0 mm 4 m/s 746 mmHg 83%
    02:00 0°C° 0 mm 4 m/s 746 mmHg 83%
    03:00 0°C° 0 mm 4 m/s 746 mmHg 84%
    04:00 0°C° 0 mm 4 m/s 747 mmHg 84%
    05:00 0°C° 0 mm 4 m/s 747 mmHg 85%
    06:00 0°C° 0 mm 5 m/s 747 mmHg 85%
    07:00 +1°C° 0 mm 5 m/s 748 mmHg 85%
    08:00 +2°C° 0 mm 5 m/s 748 mmHg 84%
    09:00 +3°C° 0 mm 5 m/s 749 mmHg 84%
    10:00 +3°C° 0.2 mm 5 m/s 749 mmHg 83%
    11:00 +3°C° 0.2 mm 5 m/s 749 mmHg 83%
    12:00 +5°C° 0.2 mm 5 m/s 750 mmHg 82%
    13:00 +5°C° 0.1 mm 5 m/s 750 mmHg 75%
    14:00 +6°C° 0.1 mm 5 m/s 750 mmHg 67%
    15:00 +7°C° 0.1 mm 6 m/s 751 mmHg 59%
    16:00 +5°C° 0 mm 5 m/s 751 mmHg 64%
    17:00 +4°C° 0 mm 3 m/s 751 mmHg 68%
    18:00 +4°C° 0 mm 2 m/s 752 mmHg 72%
    19:00 +4°C° 0 mm 2 m/s 752 mmHg 75%
    20:00 +3°C° 0 mm 2 m/s 753 mmHg 78%
    21:00 +2°C° 0 mm 3 m/s 753 mmHg 82%
    22:00 +2°C° 0 mm 3 m/s 753 mmHg 85%
    23:00 +2°C° 0 mm 3 m/s 753 mmHg 88%

    4 Mars, Mercredi

    Heure Température Précipitation Vent Pression Humidité
    00:00 +2°C° 0 mm 3 m/s 753 mmHg 91%
    01:00 +2°C° 0 mm 3 m/s 753 mmHg 92%
    02:00 +2°C° 0 mm 3 m/s 753 mmHg 92%
    03:00 +2°C° 0 mm 3 m/s 753 mmHg 92%
    04:00 +2°C° 0 mm 3 m/s 753 mmHg 92%
    05:00 +1°C° 0 mm 3 m/s 753 mmHg 92%
    06:00 +1°C° 0 mm 3 m/s 753 mmHg 91%
    07:00 +2°C° 0 mm 3 m/s 754 mmHg 87%
    08:00 +3°C° 0 mm 3 m/s 754 mmHg 83%
    09:00 +4°C° 0 mm 4 m/s 754 mmHg 78%
    10:00 +5°C° 0 mm 4 m/s 754 mmHg 71%
    11:00 +6°C° 0 mm 4 m/s 754 mmHg 64%
    12:00 +7°C° 0 mm 4 m/s 755 mmHg 56%
    13:00 +7°C° 0 mm 4 m/s 754 mmHg 57%
    14:00 +7°C° 0 mm 4 m/s 754 mmHg 57%
    15:00 +7°C° 0 mm 4 m/s 754 mmHg 57%
    16:00 +7°C° 0 mm 3 m/s 754 mmHg 62%
    17:00 +6°C° 0 mm 2 m/s 755 mmHg 67%
    18:00 +6°C° 0 mm 1 m/s 755 mmHg 72%
    19:00 +5°C° 0 mm 1 m/s 755 mmHg 73%
    20:00 +5°C° 0 mm 1 m/s 755 mmHg 75%
    21:00 +4°C° 0 mm 1 m/s 755 mmHg 76%
    22:00 +3°C° 0 mm 2 m/s 754 mmHg 78%
    23:00 +3°C° 0 mm 2 m/s 754 mmHg 80%

    5 Mars, Jeudi

    Heure Température Précipitation Vent Pression Humidité
    00:00 +2°C° 0 mm 3 m/s 753 mmHg 82%
    01:00 +2°C° 0 mm 3 m/s 752 mmHg 83%
    02:00 +2°C° 0 mm 3 m/s 752 mmHg 84%
    03:00 +3°C° 0 mm 3 m/s 751 mmHg 85%
    04:00 +3°C° 0.6 mm 3 m/s 750 mmHg 87%
    05:00 +3°C° 0.6 mm 4 m/s 749 mmHg 90%
    06:00 +3°C° 0.6 mm 4 m/s 749 mmHg 92%
    07:00 +3°C° 0.8 mm 4 m/s 748 mmHg 93%
    08:00 +3°C° 0.8 mm 3 m/s 748 mmHg 94%
    09:00 +4°C° 0.8 mm 3 m/s 747 mmHg 94%
    10:00 +4°C° 0.2 mm 3 m/s 747 mmHg 93%
    11:00 +4°C° 0.2 mm 3 m/s 748 mmHg 92%
    12:00 +5°C° 0.2 mm 2 m/s 748 mmHg 91%
    13:00 +5°C° 0 mm 3 m/s 748 mmHg 89%
    14:00 +5°C° 0 mm 3 m/s 748 mmHg 88%
    15:00 +5°C° 0 mm 3 m/s 748 mmHg 87%
    16:00 +5°C° 0 mm 3 m/s 749 mmHg 88%
    17:00 +4°C° 0 mm 3 m/s 749 mmHg 89%
    18:00 +5°C° 0 mm 2 m/s 750 mmHg 90%
    19:00 +5°C° 0 mm 2 m/s 750 mmHg 90%
    20:00 +5°C° 0 mm 2 m/s 751 mmHg 90%
    21:00 +5°C° 0 mm 2 m/s 751 mmHg 89%
    22:00 +5°C° 0 mm 2 m/s 751 mmHg 89%
    23:00 +4°C° 0 mm 2 m/s 751 mmHg 89%
    Voir plus